Regional Weather Roundup
Issued by NWS Burlington, VT

Home | Current Version | Previous Version | Text Only | Print | Product List | Glossary On
Versions: 1 2 3 4 5 6 7 8 9 10 11 12 13 14 15 16 17 18 19 20 21 22 23 24 25 26 27 28 29 30 31 32 33 34 35 36 37 38 39 40 41 42 43 44 45 46 47 48 49 50
000
ASUS41 KBTV 121310
RWRBTV
VERMONT REGIONAL WEATHER ROUNDUP
NATIONAL WEATHER SERVICE BURLINGTON VT
800 AM EST FRI FEB 12 2016

NOTE: "FAIR" INDICATES FEW OR NO CLOUDS BELOW 12,000 FEET WITH NO
SIGNIFICANT WEATHER AND/OR OBSTRUCTIONS TO VISIBILITY.

* THESE REPORTS ARE NOT UNDER NWS QUALITY CONTROL AND/OR DO NOT
  REPORT WEATHER SUCH AS PRECIPITATION AND FOG.

VTZ001>019-121400-
_____VERMONT_____


CITY           SKY/WX    TMP DP  RH WIND       PRES   REMARKS
BURLINGTON     FAIR       1  -6  72 S6        30.12F WCI -10
MONTPELIER     FAIR      -3  -9  75 CALM      30.08R
MORRISVILLE    FAIR      -2  -8  76 NE3       30.09S
ST. JOHNSBURY*   N/A     -4  -9  79 MISG      30.08R
LYNDONVILLE*   FAIR      -4 -10  75 CALM      30.04S
RUTLAND*       FAIR       0  -4  85 SE3       30.09F
SPRINGFIELD    FAIR      -1  -7  75 CALM      30.14R
HIGHGATE*      FAIR      -7 -11  80 E3        30.12F
NEWPORT*       FAIR      -5 -12  70 S5        30.06R WCI -16
BENNINGTON     CLOUDY    -1  -6  79 CALM      30.13S

_____LAKE CHAMPLAIN_____


CITY           SKY/WX    TMP DP  RH WIND       PRES   REMARKS

$$

NYZ007-026>031-035-052-083-121400-
_____NORTHERN NEW YORK_____


CITY           SKY/WX    TMP DP  RH WIND       PRES   REMARKS
PLATTSBURGH    CLEAR     -6 -11  79 CALM      30.12F
SARANAC LAKE   CLOUDY   -13 -17  82 S3        29.93S
MASSENA        MOCLDY    -8 -14  74 NE3       30.08F
OGDENSBURG*    LGT SNOW   1  -2  85 S3        30.04F
WATERTOWN      SNOW      12   8  84 S13G20    30.03F VSB 1/4 WCI  -3
ALBANY         PTCLDY     8  -1  66 S5        30.19S WCI   0
GLENS FALLS    PTCLDY    -1  -8  72 CALM      30.17S

$$
NHZ002-005-011-121400-
_____NEW HAMPSHIRE_____


CITY           SKY/WX    TMP DP  RH WIND       PRES   REMARKS
LEBANON        SUNNY     -3  -8  79 CALM      30.13R
MT WASHINGTON  MOSUNNY  -18 -24  76 W64G72      N/A  WCI -61
PLYMOUTH       FAIR       1  -8  66 W7        30.13R WCI -12
WHITEFIELD     SUNNY     -5 -13  68 CALM      30.05R

$$

_____REGIONAL QUEBEC LOCATIONS_____


CITY           SKY/WX    TMP DP  RH WIND       PRES   REMARKS
MONTREAL       CRYSTALS   1  -6  71 VRB8      30.09F WCI -12
QUEBEC CITY    PTCLDY    -8 -17  65 SW8       30.06R WCI -23
SHERBROOKE     CLEAR     -8 -11  84 SW5       30.05R WCI -19

_____REGIONAL ONTARIO LOCATIONS_____


CITY           SKY/WX    TMP DP  RH WIND       PRES   REMARKS
OTTAWA         PTCLDY    -4 -11  71 SE3       30.02F

______KEY______
VSB  - VISIBILITY IN MILES
WCI  - WIND CHILL INDEX
HX   - HEAT INDEX
$$
NNNN



USA.gov is the U.S. government's official web portal to all federal, state and local government web resources and services.